Tracking 32577 objects as of 14-Dec-2025
HD Live streaming from Space Station
objects crossing your sky now

SHIYAN 6 02 (SY-6 02)

Track SHIYAN 6 02 (SY-6 02) now!
10-day predictions


NORAD ID: 45859
Int'l Code: 2020-043A
Perigee: 605.6 km
Apogee: 790.2 km
Inclination: 98.2 °
Period: 98.6 minutes
Semi major axis: 7068 km
RCS: Unknown
Launch date: July 4, 2020
Source: People's Republic of China (PRC)
Launch site: Jiuquan Satellite Launch Center, China (JSC)
Your satellite tracking list
Your tracking list is empty




NASA's NSSDC Master Catalog

Two Line Element Set (TLE):
1 45859U 20043A   25347.61267341  .00000590  00000-0  11689-3 0  9993
2 45859  98.1907 355.8876 0130528  86.5314 275.0806 14.60749041289761
Source of the keplerian elements: AFSPC